����,�O�C���x,�����t���O,�O�C���x,�����t���O,�󒲎����x,�����t���O,�󒲎����x,�����t���O,��󒲎�,�����t���O,����,�����t���O
2004/9/1 0:00,28.2,0,50,0,29.8,0,47.4,0,=,2,28.6,0
2004/9/1 0:15,27.6,0,54,0,29.8,0,47.7,0,=,2,28.5,0
2004/9/1 0:30,27.8,0,53,0,29.9,0,51,0,=,2,28.5,0
2004/9/1 0:45,27.8,0,53,0,30,0,53.1,0,=,2,28.5,0
2004/9/1 1:00,27.5,0,55,0,30.1,0,54.2,0,=,2,28.5,0
2004/9/1 1:15,27.6,0,53,0,30.1,0,51.4,0,=,2,28.5,0
2004/9/1 1:30,27.3,0,54,0,30,0,50.6,0,=,2,28.5,0
2004/9/1 1:45,27.1,0,56,0,30.1,0,51.3,0,=,2,28.5,0
2004/9/1 2:00,26.8,0,55,0,30.1,0,52.5,0,=,2,28.5,0
2004/9/1 2:15,26.7,0,55,0,30.2,0,53.2,0,=,2,28.5,0
2004/9/1 2:30,26.7,0,56,0,30.2,0,53.6,0,=,2,28.5,0
2004/9/1 2:45,26.7,0,57,0,30.2,0,54,0,=,2,28.5,0
2004/9/1 3:00,26.4,0,56,0,30.2,0,54.2,0,=,2,28.5,0
2004/9/1 3:15,26.3,0,56,0,30.2,0,54.3,0,=,2,28.5,0
2004/9/1 3:30,26.1,0,56,0,30.2,0,54.4,0,=,2,28.5,0
2004/9/1 3:45,26.2,0,54,0,30.2,0,54.6,0,=,2,28.5,0
2004/9/1 4:00,26.2,0,54,0,30.2,0,54.6,0,=,2,28.5,0
2004/9/1 4:15,26.1,0,54,0,30.2,0,54.6,0,=,2,28.5,0
2004/9/1 4:30,26.2,0,53,0,30.2,0,54.5,0,=,2,28.5,0
2004/9/1 4:45,25.9,0,55,0,30.2,0,54.5,0,=,2,28.5,0
2004/9/1 5:00,25.8,0,54,0,30.2,0,54.6,0,=,2,28.5,0
2004/9/1 5:15,25.8,0,53,0,30.2,0,54.8,0,=,2,28.5,0
2004/9/1 5:30,25.8,0,51,0,30,0,55.2,0,=,2,28.5,0
2004/9/1 5:45,25.7,0,54,0,29.9,0,53.1,0,=,2,28.4,0
2004/9/1 6:00,25.6,0,55,0,29.6,0,52.3,0,=,2,26.7,0
2004/9/1 6:15,25.6,0,57,0,29.5,0,51.2,0,=,2,26.8,0
2004/9/1 6:30,25.6,0,57,0,29.5,0,51.6,0,=,2,26.8,0
2004/9/1 6:45,25.6,0,55,0,29.5,0,50.3,0,=,2,26.9,0
2004/9/1 7:00,25.7,0,55,0,28.9,0,52.1,0,=,2,27.1,0
2004/9/1 7:15,25.8,0,49,0,29.2,0,53.8,0,=,2,27.1,0
2004/9/1 7:30,25.9,0,48,0,29.3,0,54.1,0,=,2,27.3,0
2004/9/1 7:45,25.8,0,52,0,29.4,0,54.3,0,=,2,27.3,0
2004/9/1 8:00,25.4,0,55,0,29.4,0,54.8,0,=,2,27.3,0
2004/9/1 8:15,25.7,0,58,0,29.4,0,55,0,=,2,27.3,0
2004/9/1 8:30,25.7,0,59,0,29.4,0,54.9,0,=,2,27.3,0
2004/9/1 8:45,25.7,0,58,0,29.4,0,55.1,0,=,2,27.3,0
2004/9/1 9:00,25.6,0,60,0,29.4,0,55.3,0,=,2,27.4,0
2004/9/1 9:15,25.6,0,62,0,29.5,0,55.6,0,=,2,27.4,0
2004/9/1 9:30,25.8,0,56,0,29.5,0,55.8,0,=,2,27.4,0
2004/9/1 9:45,26.1,0,56,0,29.5,0,56,0,=,2,27.4,0
2004/9/1 10:00,26,0,58,0,29.6,0,56,0,=,2,27.4,0
2004/9/1 10:15,26.2,0,57,0,29.6,0,56.1,0,=,2,27.4,0
2004/9/1 10:30,26,0,56,0,29.6,0,56.2,0,=,2,27.4,0
2004/9/1 10:45,26.6,0,54,0,29.6,0,56.2,0,=,2,27.5,0
2004/9/1 11:00,26.7,0,53,0,29.7,0,56.2,0,=,2,27.5,0
2004/9/1 11:15,26.7,0,54,0,29.7,0,56.3,0,=,2,27.5,0
2004/9/1 11:30,27.5,0,51,0,29.8,0,56.4,0,=,2,27.5,0
2004/9/1 11:45,27.8,0,49,0,29.1,0,55.2,0,=,2,27.5,0
2004/9/1 12:00,27.3,0,50,0,28.8,0,52.5,0,=,2,27.5,0
2004/9/1 12:15,27.6,0,50,0,28.1,0,54,0,=,2,27.5,0
2004/9/1 12:30,28,0,49,0,28.7,0,53.4,0,=,2,27.5,0
2004/9/1 12:45,28,0,50,0,28.8,0,52.6,0,=,2,27.6,0
2004/9/1 13:00,28.5,0,50,0,28,0,51.2,0,=,2,27.6,0
2004/9/1 13:15,28.7,0,47,0,27.9,0,48.4,0,=,2,27.6,0
2004/9/1 13:30,28.6,0,47,0,27.9,0,50.6,0,=,2,27.6,0
2004/9/1 13:45,28.5,0,47,0,27.9,0,50.7,0,=,2,27.6,0
2004/9/1 14:00,28.2,0,48,0,27.9,0,47.3,0,=,2,27.6,0
2004/9/1 14:15,28.1,0,44,0,28.2,0,48.2,0,=,2,27.6,0
2004/9/1 14:30,27.9,0,44,0,28.4,0,48.7,0,=,2,27.6,0
2004/9/1 14:45,28,0,44,0,28.7,0,49.4,0,=,2,27.6,0
2004/9/1 15:00,27.9,0,45,0,28.8,0,49.1,0,=,2,27.7,0
2004/9/1 15:15,27.8,0,43,0,28.9,0,48.9,0,=,2,27.7,0
2004/9/1 15:30,27.7,0,44,0,28.9,0,48.6,0,=,2,27.7,0
2004/9/1 15:45,27.5,0,44,0,28.8,0,49.9,0,=,2,27.7,0
2004/9/1 16:00,27.4,0,45,0,28.8,0,51.4,0,=,2,27.6,0
2004/9/1 16:15,27.1,0,45,0,28.8,0,51.9,0,=,2,27.6,0
2004/9/1 16:30,27,0,46,0,29,0,52.5,0,=,2,27.6,0
2004/9/1 16:45,26.9,0,48,0,29.2,0,53,0,=,2,27.6,0
2004/9/1 17:00,26.8,0,49,0,29.2,0,52.9,0,=,2,27.6,0
2004/9/1 17:15,26.8,0,51,0,29.2,0,53.2,0,=,2,27.6,0
2004/9/1 17:30,26.4,0,52,0,29.2,0,54.3,0,=,2,27.6,0
2004/9/1 17:45,26.6,0,56,0,29.2,0,54.5,0,=,2,27.6,0
2004/9/1 18:00,26.3,0,56,0,29.2,0,55.6,0,=,2,27.6,0
2004/9/1 18:15,26.1,0,58,0,29.2,0,55.8,0,=,2,27.6,0
2004/9/1 18:30,26.1,0,58,0,29.1,0,54.7,0,=,2,27.5,0
2004/9/1 18:45,25.9,0,60,0,29.1,0,56.3,0,=,2,26.9,0
2004/9/1 19:00,25.7,0,60,0,29.2,0,59.8,0,=,2,26.9,0
2004/9/1 19:15,25.7,0,62,0,28.7,0,64.4,0,=,2,26.9,0
2004/9/1 19:30,25.5,0,62,0,28.6,0,58.4,0,=,2,26.9,0
2004/9/1 19:45,25.5,0,60,0,28.9,0,57,0,=,2,26.9,0
2004/9/1 20:00,25.3,0,64,0,29,0,57.5,0,=,2,26.9,0
2004/9/1 20:15,25.1,0,65,0,28.9,0,54.8,0,=,2,26.9,0
2004/9/1 20:30,25,0,63,0,28.8,0,56.4,0,=,2,27.1,0
2004/9/1 20:45,24.6,0,64,0,28.8,0,57.7,0,=,2,27.1,0
2004/9/1 21:00,24.8,0,66,0,28.7,0,57.7,0,=,2,27.1,0
2004/9/1 21:15,24.5,0,66,0,28.7,0,56.8,0,=,2,27.1,0
2004/9/1 21:30,24.6,0,65,0,28.5,0,57.8,0,=,2,27.1,0
2004/9/1 21:45,24.5,0,66,0,28.4,0,57.7,0,=,2,27.1,0
2004/9/1 22:00,24.4,0,67,0,28.3,0,57.6,0,=,2,27.1,0
2004/9/1 22:15,24.4,0,66,0,28.2,0,58.1,0,=,2,27.2,0
2004/9/1 22:30,24.2,0,68,0,28.1,0,58.4,0,=,2,27.2,0
2004/9/1 22:45,24,0,69,0,27.9,0,59.1,0,=,2,27.2,0
2004/9/1 23:00,24,0,70,0,27.9,0,58.8,0,=,2,27.2,0
2004/9/1 23:15,23.9,0,70,0,27.9,0,59.2,0,=,2,27.2,0
2004/9/1 23:30,24,0,69,0,27.9,0,58.4,0,=,2,27.2,0
2004/9/1 23:45,24,0,69,0,27.7,0,58.2,0,=,2,27.2,0
2004/9/2 0:00,23.8,0,70,0,28,0,58.8,0,=,2,27.4,0
2004/9/2 0:15,23.7,0,71,0,28,0,60.1,0,=,2,27.2,0
2004/9/2 0:30,23.9,0,69,0,28.1,0,60.3,0,=,2,27,0
2004/9/2 0:45,23.9,0,68,0,28.1,0,60.6,0,=,2,27,0
2004/9/2 1:00,23.7,0,69,0,28.2,0,60.6,0,=,2,27,0
2004/9/2 1:15,23.5,0,68,0,28.2,0,60.7,0,=,2,27,0
2004/9/2 1:30,23.4,0,68,0,28.2,0,60.8,0,=,2,27,0
2004/9/2 1:45,23.2,0,68,0,28.2,0,60.7,0,=,2,27,0
2004/9/2 2:00,23.3,0,69,0,28.2,0,60.8,0,=,2,27,0
2004/9/2 2:15,23.3,0,68,0,28.2,0,60.7,0,=,2,27,0
2004/9/2 2:30,23.1,0,68,0,28.2,0,60.6,0,=,2,27,0
2004/9/2 2:45,23,0,69,0,28.2,0,60.6,0,=,2,27.1,0
2004/9/2 3:00,23.2,0,68,0,28.2,0,60.8,0,=,2,27.1,0
2004/9/2 3:15,23.1,0,68,0,28.2,0,61,0,=,2,27.1,0
2004/9/2 3:30,23.1,0,68,0,28.2,0,60.6,0,=,2,27.1,0
2004/9/2 3:45,23.2,0,67,0,28.2,0,60.7,0,=,2,27.1,0
2004/9/2 4:00,23.2,0,66,0,28.2,0,60.5,0,=,2,27.1,0
2004/9/2 4:15,23.1,0,66,0,28.1,0,60.7,0,=,2,27.1,0
2004/9/2 4:30,23,0,66,0,28.1,0,60.7,0,=,2,27.1,0
2004/9/2 4:45,23.1,0,66,0,28.1,0,60.6,0,=,2,27.1,0
2004/9/2 5:00,23.2,0,66,0,28.1,0,61,0,=,2,27.1,0
2004/9/2 5:15,23.1,0,66,0,28.1,0,60.7,0,=,2,27.1,0
2004/9/2 5:30,23,0,68,0,28.1,0,60.7,0,=,2,27.3,0
2004/9/2 5:45,23,0,68,0,28,0,60.1,0,=,2,27.3,0
2004/9/2 6:00,22.9,0,69,0,27.4,0,59,0,=,2,27.3,0
2004/9/2 6:15,22.9,0,69,0,27.2,0,59.3,0,=,2,27.2,0
2004/9/2 6:30,22.8,0,69,0,27.3,0,59.1,0,=,2,27.2,0
2004/9/2 6:45,22.8,0,69,0,25.9,0,62.1,0,=,2,26.5,0
2004/9/2 7:00,22.8,0,69,0,26.7,0,61.3,0,=,2,25.4,0
2004/9/2 7:15,22.8,0,69,0,26.9,0,61.3,0,=,2,25.4,0
2004/9/2 7:30,22.8,0,70,0,27,0,60.7,0,=,2,25.4,0
2004/9/2 7:45,22.8,0,70,0,27.1,0,60.1,0,=,2,25.4,0
2004/9/2 8:00,22.5,0,73,0,27.2,0,60,0,=,2,25.6,0
2004/9/2 8:15,22.8,0,72,0,27.2,0,60.1,0,=,2,25.6,0
2004/9/2 8:30,22.8,0,72,0,27.3,0,60.1,0,=,2,25.6,0
2004/9/2 8:45,23,0,70,0,27.4,0,60.2,0,=,2,25.7,0
2004/9/2 9:00,23.4,0,68,0,27.4,0,60.3,0,=,2,25.7,0
2004/9/2 9:15,23.1,0,68,0,27.4,0,60.2,0,=,2,25.7,0
2004/9/2 9:30,23.3,0,69,0,27.4,0,60.2,0,=,2,25.7,0
2004/9/2 9:45,23.6,0,68,0,27.4,0,60.3,0,=,2,25.7,0
2004/9/2 10:00,23.8,0,67,0,27.5,0,60.4,0,=,2,25.7,0
2004/9/2 10:15,25.3,0,62,0,27.6,0,60.4,0,=,2,25.7,0
2004/9/2 10:30,24.6,0,63,0,27.6,0,60.4,0,=,2,25.8,0
2004/9/2 10:45,24.5,0,65,0,27.7,0,60.3,0,=,2,25.8,0
2004/9/2 11:00,25.4,0,61,0,27.8,0,60.2,0,=,2,25.8,0
2004/9/2 11:15,26.6,0,57,0,27.8,0,60.2,0,=,2,25.8,0
2004/9/2 11:30,26.6,0,58,0,27.9,0,60.1,0,=,2,25.8,0
2004/9/2 11:45,26.6,0,58,0,27.5,0,62.7,0,=,2,25.8,0
2004/9/2 12:00,26.4,0,59,0,27.3,0,64.1,0,=,2,25.9,0
2004/9/2 12:15,26.6,0,59,0,27.4,0,64.1,0,=,2,25.9,0
2004/9/2 12:30,26.6,0,60,0,27.1,0,64.9,0,=,2,25.9,0
2004/9/2 12:45,26.8,0,60,0,27.2,0,64.5,0,=,2,25.9,0
2004/9/2 13:00,26.8,0,60,0,27.5,0,64.8,0,=,2,25.9,0
2004/9/2 13:15,26.7,0,61,0,27.7,0,64.1,0,=,2,25.9,0
2004/9/2 13:30,26.6,0,62,0,27.7,0,64,0,=,2,25.9,0
2004/9/2 13:45,26.4,0,63,0,27.8,0,63.8,0,=,2,25.9,0
2004/9/2 14:00,26.4,0,63,0,27.9,0,64.7,0,=,2,26,0
2004/9/2 14:15,26.4,0,64,0,27.9,0,65,0,=,2,26,0
2004/9/2 14:30,26.4,0,64,0,28.2,0,64.4,0,=,2,26,0
2004/9/2 14:45,26.6,0,63,0,28.3,0,63.6,0,=,2,26,0
2004/9/2 15:00,26.6,0,64,0,28.2,0,63,0,=,2,26,0
2004/9/2 15:15,26.6,0,65,0,28.6,0,61.1,0,=,2,26.1,0
2004/9/2 15:30,26.7,0,65,0,28.7,0,61.4,0,=,2,26.1,0
2004/9/2 15:45,26.8,0,66,0,28.8,0,60.5,0,=,2,26.1,0
2004/9/2 16:00,26.8,0,64,0,29.1,0,61.1,0,=,2,26.1,0
2004/9/2 16:15,26.6,0,64,0,29.3,0,60.3,0,=,2,26.1,0
2004/9/2 16:30,26.4,0,64,0,29.6,0,61.1,0,=,2,26.1,0
2004/9/2 16:45,26.6,0,64,0,29.5,0,61.1,0,=,2,26.2,0
2004/9/2 17:00,26.6,0,64,0,29.4,0,62.2,0,=,2,26.2,0
2004/9/2 17:15,26.7,0,65,0,29.8,0,61.2,0,=,2,26.2,0
2004/9/2 17:30,26.8,0,65,0,29.8,0,62,0,=,2,26.2,0
2004/9/2 17:45,26.8,0,67,0,29.6,0,62.2,0,=,2,26.2,0
2004/9/2 18:00,26.8,0,67,0,29.1,0,63.6,0,=,2,26.2,0
2004/9/2 18:15,26.7,0,68,0,28.9,0,64.1,0,=,2,26.3,0
2004/9/2 18:30,26.9,0,68,0,28.8,0,64.1,0,=,2,26.3,0
2004/9/2 18:45,27.3,0,68,0,28.5,0,66.3,0,=,2,26.3,0
2004/9/2 19:00,27.4,0,67,0,28.3,0,66.5,0,=,2,26.6,0
2004/9/2 19:15,27.3,0,67,0,28.8,0,65.5,0,=,2,26.7,0
2004/9/2 19:30,27.1,0,67,0,29,0,65.4,0,=,2,26.7,0
2004/9/2 19:45,27.1,0,67,0,29.3,0,65.6,0,=,2,26.7,0
2004/9/2 20:00,26.6,0,69,0,29.1,0,62.1,0,=,2,26.7,0
2004/9/2 20:15,26.4,0,70,0,29.2,0,63.4,0,=,2,26.7,0
2004/9/2 20:30,26.3,0,71,0,29.4,0,63.1,0,=,2,27,0
2004/9/2 20:45,26.3,0,71,0,29.5,0,62.6,0,=,2,27,0
2004/9/2 21:00,26.3,0,72,0,29.5,0,62.3,0,=,2,27.1,0
2004/9/2 21:15,26.4,0,70,0,29.6,0,61.9,0,=,2,27.1,0
2004/9/2 21:30,26.7,0,70,0,29.6,0,61.6,0,=,2,27.1,0
2004/9/2 21:45,26.4,0,69,0,29.7,0,61.6,0,=,2,27.1,0
2004/9/2 22:00,26.2,0,70,0,29.7,0,60.6,0,=,2,26.8,0
2004/9/2 22:15,26.2,0,71,0,29.8,0,60.3,0,=,2,26.8,0
2004/9/2 22:30,26.1,0,71,0,29.6,0,58.1,0,=,2,26.9,0
2004/9/2 22:45,26,0,71,0,29.6,0,56.2,0,=,2,26.8,0
2004/9/2 23:00,25.8,0,70,0,29.5,0,52.3,0,=,2,26.8,0
2004/9/2 23:15,25.8,0,71,0,29.4,0,51.1,0,=,2,26.8,0
2004/9/2 23:30,25.8,0,70,0,29.3,0,51.3,0,=,2,26.8,0
2004/9/2 23:45,25.8,0,70,0,29.2,0,49.8,0,=,2,26.9,0
2004/9/3 0:00,25.8,0,72,0,29.1,0,48.8,0,=,2,26.9,0
2004/9/3 0:15,25.7,0,74,0,29.2,0,52,0,=,2,26.9,0
2004/9/3 0:30,25.6,0,73,0,29.2,0,54,0,=,2,26.9,0
2004/9/3 0:45,25.5,0,73,0,29.3,0,55.6,0,=,2,26.9,0
2004/9/3 1:00,25.3,0,73,0,29.3,0,56.7,0,=,2,26.9,0
2004/9/3 1:15,25.3,0,74,0,29.3,0,57.5,0,=,2,26.9,0
2004/9/3 1:30,25.2,0,74,0,29.3,0,57.9,0,=,2,26.9,0
2004/9/3 1:45,25.1,0,73,0,29.3,0,58.3,0,=,2,27,0
2004/9/3 2:00,24.9,0,74,0,29.3,0,58.2,0,=,2,27,0
2004/9/3 2:15,25.1,0,75,0,29.3,0,57.7,0,=,2,27,0
2004/9/3 2:30,24.9,0,74,0,29.2,0,57.3,0,=,2,27,0
2004/9/3 2:45,24.8,0,74,0,29.2,0,57.2,0,=,2,27,0
2004/9/3 3:00,24.8,0,72,0,29.1,0,57.6,0,=,2,27,0
2004/9/3 3:15,24.5,0,70,0,29.1,0,57.7,0,=,2,27.1,0
2004/9/3 3:30,24.6,0,69,0,29.1,0,57.7,0,=,2,27.1,0
2004/9/3 3:45,24.5,0,68,0,29.1,0,57.7,0,=,2,27.1,0
2004/9/3 4:00,24.5,0,70,0,29.1,0,57.9,0,=,2,27.1,0
2004/9/3 4:15,24.5,0,69,0,29.1,0,58.2,0,=,2,27.1,0
2004/9/3 4:30,24.5,0,69,0,29.1,0,57.8,0,=,2,27.1,0
2004/9/3 4:45,24.4,0,69,0,29.1,0,57.8,0,=,2,27.1,0
2004/9/3 5:00,24.3,0,70,0,29,0,57,0,=,2,27.1,0
2004/9/3 5:15,24.4,0,72,0,29,0,55.9,0,=,2,27.2,0
2004/9/3 5:30,24.2,0,69,0,28.9,0,56,0,=,2,27.2,0
2004/9/3 5:45,24.1,0,66,0,28.9,0,56.9,0,=,2,27.2,0
2004/9/3 6:00,23.9,0,65,0,28.5,0,57,0,=,2,27.2,0
2004/9/3 6:15,23.8,0,63,0,28.4,0,56.1,0,=,2,26.5,0
2004/9/3 6:30,23.9,0,65,0,28.5,0,56.6,0,=,2,25.4,0
2004/9/3 6:45,23.9,0,65,0,28.1,0,54.1,0,=,2,25.2,0
2004/9/3 7:00,23.8,0,66,0,27.6,0,54.2,0,=,2,25.3,0
2004/9/3 7:15,23.7,0,65,0,27.5,0,55.7,0,=,2,25.4,0
2004/9/3 7:30,23.8,0,62,0,27.3,0,58,0,=,2,25.5,0
2004/9/3 7:45,24,0,61,0,27.8,0,57.7,0,=,2,25.7,0
2004/9/3 8:00,23.9,0,60,0,28,0,57.8,0,=,2,25.8,0
2004/9/3 8:15,24.1,0,61,0,28.2,0,58,0,=,2,25.8,0
2004/9/3 8:30,24.5,0,60,0,28.3,0,58.1,0,=,2,25.9,0
2004/9/3 8:45,25.4,0,63,0,28.4,0,58.5,0,=,2,25.9,0
2004/9/3 9:00,26.4,0,59,0,28.5,0,58.6,0,=,2,25.9,0
2004/9/3 9:15,29.5,0,52,0,28.6,0,58.7,0,=,2,25.9,0
2004/9/3 9:30,32.1,0,40,0,28.6,0,58.7,0,=,2,25.9,0
2004/9/3 9:45,34.4,0,37,0,28.7,0,58.6,0,=,2,25.9,0
2004/9/3 10:00,35.7,0,34,0,28.8,0,58.5,0,=,2,25.9,0
2004/9/3 10:15,35.3,0,34,0,28.8,0,58.6,0,=,2,26,0
2004/9/3 10:30,35.8,0,32,0,28.9,0,58.6,0,=,2,26,0
2004/9/3 10:45,35.7,0,32,0,28.9,0,58.4,0,=,2,26,0
2004/9/3 11:00,34.8,0,34,0,29,0,58.3,0,=,2,26,0
2004/9/3 11:15,34.4,0,36,0,29,0,58.2,0,=,2,26.1,0
2004/9/3 11:30,31.6,0,43,0,29.1,0,58.7,0,=,2,26.1,0
2004/9/3 11:45,30.4,0,45,0,29.2,0,58.7,0,=,2,26.1,0
2004/9/3 12:00,29.9,0,48,0,29.3,0,58.8,0,=,2,26.1,0
2004/9/3 12:15,29.6,0,49,0,29.4,0,59.1,0,=,2,26.1,0
2004/9/3 12:30,29.4,0,52,0,29.4,0,59.4,0,=,2,26.2,0
2004/9/3 12:45,29.6,0,52,0,29.5,0,59.4,0,=,2,26.2,0
2004/9/3 13:00,29.7,0,52,0,29.6,0,59.6,0,=,2,26.2,0
2004/9/3 13:15,29.7,0,54,0,29.7,0,59.5,0,=,2,26.2,0
2004/9/3 13:30,29.4,0,55,0,29.8,0,59.4,0,=,2,26.2,0
2004/9/3 13:45,29.3,0,56,0,29.3,0,63.2,0,=,2,26.3,0
2004/9/3 14:00,29.4,0,57,0,29,0,64.5,0,=,2,26.3,0
2004/9/3 14:15,29.1,0,58,0,29,0,64,0,=,2,26.3,0
2004/9/3 14:30,29.3,0,58,0,29.2,0,65.3,0,=,2,26.3,0
2004/9/3 14:45,29.2,0,55,0,29.3,0,65,0,=,2,26.4,0
2004/9/3 15:00,29.4,0,58,0,29.3,0,65.5,0,=,2,26.4,0
2004/9/3 15:15,29.3,0,58,0,29.2,0,65.7,0,=,2,27.2,0
2004/9/3 15:30,29.4,0,59,0,29.1,0,64.9,0,=,2,27.2,0
2004/9/3 15:45,29.2,0,60,0,29,0,64.5,0,=,2,27.2,0
2004/9/3 16:00,29.2,0,61,0,28.9,0,64.2,0,=,2,27.2,0
2004/9/3 16:15,29.2,0,61,0,29,0,64.7,0,=,2,27.2,0
2004/9/3 16:30,29,0,61,0,29.6,0,62.1,0,=,2,27.3,0
2004/9/3 16:45,29,0,61,0,29.9,0,61.9,0,=,2,27.3,0
2004/9/3 17:00,28.9,0,60,0,29.8,0,61.8,0,=,2,27.3,0
2004/9/3 17:15,28.9,0,60,0,29.9,0,60.8,0,=,2,27.3,0
2004/9/3 17:30,29,0,59,0,29.7,0,61.3,0,=,2,27.3,0
2004/9/3 17:45,29.1,0,59,0,29.8,0,59.7,0,=,2,27.3,0
2004/9/3 18:00,29,0,60,0,29.8,0,58.3,0,=,2,27.2,0
2004/9/3 18:15,28.7,0,59,0,29.9,0,58.2,0,=,2,27.2,0
2004/9/3 18:30,28.6,0,60,0,29.8,0,54.4,0,=,2,27.2,0
2004/9/3 18:45,28.5,0,59,0,29.8,0,54.2,0,=,2,27.2,0
2004/9/3 19:00,28.4,0,56,0,29.6,0,54.4,0,=,2,26.9,0
2004/9/3 19:15,28.2,0,57,0,29.8,0,56.5,0,=,2,26.5,0
2004/9/3 19:30,28.2,0,54,0,30,0,57.5,0,=,2,26.5,0
2004/9/3 19:45,28.2,0,51,0,30.1,0,57.5,0,=,2,26.5,0
2004/9/3 20:00,28.2,0,50,0,30.4,0,57.3,0,=,2,26.6,0
2004/9/3 20:15,28.2,0,51,0,30.4,0,58.8,0,=,2,26.6,0
2004/9/3 20:30,28,0,57,0,30.5,0,57,0,=,2,26.5,0
2004/9/3 20:45,28,0,59,0,30.6,0,57.1,0,=,2,26.5,0
2004/9/3 21:00,27.6,0,62,0,30.2,0,52.7,0,=,2,26.7,0
2004/9/3 21:15,27.3,0,63,0,30.3,0,52.5,0,=,2,26.4,0
2004/9/3 21:30,27.3,0,62,0,30.1,0,50.8,0,=,2,26.4,0
2004/9/3 21:45,27.7,0,62,0,30.1,0,50,0,=,2,26.4,0
2004/9/3 22:00,27.4,0,60,0,30.1,0,52.2,0,=,2,26.5,0
2004/9/3 22:15,27.5,0,57,0,30.2,0,55.3,0,=,2,26.5,0
2004/9/3 22:30,27.7,0,55,0,30.2,0,56.2,0,=,2,26.5,0
2004/9/3 22:45,28,0,52,0,30.2,0,56.5,0,=,2,26.6,0
2004/9/3 23:00,28,0,50,0,30.2,0,56.5,0,=,2,26.6,0
2004/9/3 23:15,28,0,58,0,30,0,56.4,0,=,2,26.6,0
2004/9/3 23:30,27.8,0,60,0,30.1,0,56.3,0,=,2,27.1,0
2004/9/3 23:45,27.8,0,60,0,30.1,0,55.9,0,=,2,27.1,0
2004/9/4 0:00,27.5,0,61,0,30.1,0,55.6,0,=,2,27.1,0
2004/9/4 0:15,27.5,0,61,0,30,0,52.3,0,=,2,27.2,0
2004/9/4 0:30,27.5,0,59,0,29.9,0,49.5,0,=,2,27.2,0
2004/9/4 0:45,27.3,0,59,0,29.5,0,54.2,0,=,2,27.2,0
2004/9/4 1:00,27.5,0,59,0,29.6,0,53.9,0,=,2,27.2,0
2004/9/4 1:15,27.3,0,59,0,29.6,0,48.8,0,=,2,27.2,0
2004/9/4 1:30,27.2,0,59,0,29.5,0,49.8,0,=,2,27.3,0
2004/9/4 1:45,27.3,0,59,0,29.4,0,49.2,0,=,2,27.3,0
2004/9/4 2:00,27.5,0,57,0,29.5,0,51.2,0,=,2,27.3,0
2004/9/4 2:15,27.4,0,57,0,29.5,0,53.5,0,=,2,27.3,0
2004/9/4 2:30,27.3,0,57,0,29.5,0,53.4,0,=,2,27.3,0
2004/9/4 2:45,27.3,0,56,0,29.5,0,53.3,0,=,2,27.3,0
2004/9/4 3:00,27.1,0,60,0,29.5,0,53.4,0,=,2,27.3,0
2004/9/4 3:15,26.9,0,59,0,29.5,0,53.5,0,=,2,27.4,0
2004/9/4 3:30,26.7,0,56,0,29.5,0,52.7,0,=,2,27.4,0
2004/9/4 3:45,26.7,0,55,0,29.5,0,53,0,=,2,27.4,0
2004/9/4 4:00,26.6,0,55,0,29.5,0,53.3,0,=,2,27.4,0
2004/9/4 4:15,26.6,0,56,0,29.5,0,53.7,0,=,2,27.4,0
2004/9/4 4:30,26.7,0,55,0,29.4,0,52.9,0,=,2,27.4,0
2004/9/4 4:45,26.9,0,55,0,29.4,0,52.6,0,=,2,27.5,0
2004/9/4 5:00,26.7,0,56,0,29.1,0,53.8,0,=,2,27.5,0
2004/9/4 5:15,26.7,0,57,0,29.3,0,53.9,0,=,2,27.5,0
2004/9/4 5:30,26.6,0,55,0,29.3,0,54,0,=,2,27.5,0
2004/9/4 5:45,26.8,0,55,0,29.4,0,53.9,0,=,2,27.5,0
2004/9/4 6:00,26.8,0,56,0,29.3,0,53.5,0,=,2,27.5,0
2004/9/4 6:15,26.8,0,56,0,29.3,0,53.8,0,=,2,27.5,0
2004/9/4 6:30,26.6,0,58,0,29.3,0,54.2,0,=,2,27.5,0
2004/9/4 6:45,26.3,0,57,0,29.3,0,54.3,0,=,2,27.6,0
2004/9/4 7:00,26.3,0,57,0,29,0,55.2,0,=,2,27.6,0
2004/9/4 7:15,26.4,0,58,0,29,0,54.5,0,=,2,26.5,0
2004/9/4 7:30,26.4,0,57,0,29.1,0,56.1,0,=,2,26.5,0
2004/9/4 7:45,26.2,0,57,0,29.3,0,57.8,0,=,2,26.5,0
2004/9/4 8:00,26.3,0,58,0,29.4,0,57.8,0,=,2,26.1,0
2004/9/4 8:15,26.8,0,57,0,29.6,0,58.3,0,=,2,26.2,0
2004/9/4 8:30,27,0,55,0,29.6,0,58.1,0,=,2,26.2,0
2004/9/4 8:45,27.3,0,54,0,29.8,0,57.8,0,=,2,26.3,0
2004/9/4 9:00,27.2,0,54,0,29.8,0,57.2,0,=,2,26.3,0
2004/9/4 9:15,27.4,0,54,0,29.9,0,57.2,0,=,2,26.4,0
2004/9/4 9:30,27.6,0,53,0,29.9,0,57.3,0,=,2,26.4,0
2004/9/4 9:45,27.5,0,53,0,29.8,0,58.2,0,=,2,26.5,0
2004/9/4 10:00,27.4,0,54,0,29.8,0,58.4,0,=,2,26.5,0
2004/9/4 10:15,27.5,0,54,0,29.8,0,58.3,0,=,2,26.5,0
2004/9/4 10:30,27.4,0,56,0,29.9,0,58.1,0,=,2,26.6,0
2004/9/4 10:45,27.1,0,59,0,30.2,0,57.3,0,=,2,26.8,0
2004/9/4 11:00,27.4,0,59,0,30.1,0,57.3,0,=,2,26.8,0
2004/9/4 11:15,28,0,58,0,30.2,0,58.2,0,=,2,26.8,0
2004/9/4 11:30,27.9,0,55,0,30.2,0,58.5,0,=,2,26.9,0
2004/9/4 11:45,27.7,0,57,0,30.3,0,58,0,=,2,26.9,0
2004/9/4 12:00,27.8,0,57,0,30.3,0,57.9,0,=,2,26.9,0
2004/9/4 12:15,27.9,0,56,0,30.4,0,57.8,0,=,2,26.9,0
2004/9/4 12:30,28.2,0,57,0,29.9,0,59,0,=,2,27,0
2004/9/4 12:45,28.3,0,57,0,29.5,0,61.5,0,=,2,27,0
2004/9/4 13:00,28.4,0,58,0,29.9,0,61.4,0,=,2,27,0
2004/9/4 13:15,28.4,0,58,0,30,0,60.6,0,=,2,27,0
2004/9/4 13:30,28.6,0,58,0,30,0,60.5,0,=,2,27.1,0
2004/9/4 13:45,28.8,0,59,0,30,0,59.3,0,=,2,27.1,0
2004/9/4 14:00,28.5,0,60,0,30.2,0,60.1,0,=,2,27.1,0
2004/9/4 14:15,28.5,0,60,0,30.2,0,58.8,0,=,2,27.1,0
2004/9/4 14:30,28.7,0,60,0,30.2,0,58.9,0,=,2,27.2,0
2004/9/4 14:45,28.8,0,58,0,30.1,0,59.4,0,=,2,27.2,0
2004/9/4 15:00,28.7,0,59,0,29.8,0,60.2,0,=,2,27.3,0
2004/9/4 15:15,28.8,0,58,0,29.8,0,60.8,0,=,2,27.3,0
2004/9/4 15:30,28.7,0,59,0,30.2,0,61.1,0,=,2,27.3,0
2004/9/4 15:45,28.6,0,60,0,30,0,61.3,0,=,2,26.6,0
2004/9/4 16:00,28.6,0,59,0,30.3,0,61.4,0,=,2,26.7,0
2004/9/4 16:15,28.5,0,60,0,30.4,0,60.7,0,=,2,26.7,0
2004/9/4 16:30,28.5,0,60,0,30.5,0,60.1,0,=,2,26.8,0
2004/9/4 16:45,28.4,0,62,0,30.7,0,58.8,0,=,2,26.8,0
2004/9/4 17:00,28.5,0,62,0,30.7,0,58.7,0,=,2,26.9,0
2004/9/4 17:15,28.5,0,62,0,30.8,0,58.7,0,=,2,26.9,0
2004/9/4 17:30,28.6,0,62,0,30.7,0,59.2,0,=,2,26.9,0
2004/9/4 17:45,28.5,0,62,0,30.7,0,59.2,0,=,2,26.9,0
2004/9/4 18:00,28.5,0,62,0,30.7,0,59.3,0,=,2,27,0
2004/9/4 18:15,28.5,0,62,0,30.7,0,59.3,0,=,2,27,0
2004/9/4 18:30,28.3,0,63,0,30.8,0,59.3,0,=,2,27,0
2004/9/4 18:45,28.1,0,64,0,30.8,0,59.9,0,=,2,27.1,0
2004/9/4 19:00,28,0,65,0,30.9,0,61,0,=,2,27.1,0
2004/9/4 19:15,28,0,65,0,30.6,0,62.4,0,=,2,27.1,0
2004/9/4 19:30,28,0,65,0,30.7,0,57.7,0,=,2,27.2,0
2004/9/4 19:45,28,0,65,0,30.6,0,56.6,0,=,2,26.3,0
2004/9/4 20:00,28,0,66,0,30.4,0,57.6,0,=,2,26.4,0
2004/9/4 20:15,28,0,66,0,30.2,0,57.9,0,=,2,26.5,0
2004/9/4 20:30,28,0,66,0,30.3,0,57.4,0,=,2,26.6,0
2004/9/4 20:45,27.9,0,67,0,30.2,0,58.1,0,=,2,26.6,0
2004/9/4 21:00,27.8,0,67,0,30,0,55.8,0,=,2,26.6,0
2004/9/4 21:15,27.7,0,68,0,30,0,54.3,0,=,2,26.8,0
2004/9/4 21:30,27.6,0,72,0,30,0,61.1,0,=,2,26.9,0
2004/9/4 21:45,27.5,0,73,0,30.1,0,62.1,0,=,2,26.9,0
2004/9/4 22:00,27.4,0,73,0,30.1,0,60.8,0,=,2,26.9,0
2004/9/4 22:15,27.4,0,73,0,30.1,0,56.8,0,=,2,26.9,0
2004/9/4 22:30,27.3,0,73,0,29.9,0,55.9,0,=,2,27,0
2004/9/4 22:45,27.2,0,75,0,29.9,0,61.6,0,=,2,27,0
2004/9/4 23:00,27,0,77,0,30.1,0,62.9,0,=,2,27,0
2004/9/4 23:15,27,0,78,0,30.2,0,64,0,=,2,27,0
2004/9/4 23:30,26.9,0,78,0,29.9,0,65.1,0,=,2,27,0
2004/9/4 23:45,27.1,0,79,0,30.1,0,64.2,0,=,2,27.1,0
2004/9/5 0:00,26.8,0,79,0,30.2,0,63.5,0,=,2,27.1,0
2004/9/5 0:15,27,0,78,0,30.3,0,63.3,0,=,2,27.3,0
2004/9/5 0:30,27.3,0,77,0,30.2,0,59.4,0,=,2,27.3,0
2004/9/5 0:45,27.3,0,76,0,30.1,0,57.9,0,=,2,27.3,0
2004/9/5 1:00,27.1,0,75,0,30,0,56.3,0,=,2,27.3,0
2004/9/5 1:15,27.1,0,76,0,29.9,0,56.2,0,=,2,27.3,0
2004/9/5 1:30,27,0,77,0,29.9,0,56.1,0,=,2,27.3,0
2004/9/5 1:45,26.9,0,77,0,29.8,0,55.7,0,=,2,27.4,0
2004/9/5 2:00,26.9,0,77,0,29.9,0,59.1,0,=,2,27.4,0
2004/9/5 2:15,26.9,0,76,0,29.9,0,60.3,0,=,2,27.4,0
2004/9/5 2:30,26.8,0,74,0,29.9,0,60.6,0,=,2,27.4,0
2004/9/5 2:45,26.9,0,73,0,30,0,61.2,0,=,2,27.4,0
2004/9/5 3:00,26.8,0,73,0,30,0,61.5,0,=,2,27.4,0
2004/9/5 3:15,26.7,0,73,0,30,0,61.2,0,=,2,27.4,0
2004/9/5 3:30,26.8,0,73,0,30,0,61.5,0,=,2,27.4,0
2004/9/5 3:45,26.7,0,73,0,30,0,61.5,0,=,2,27.5,0
2004/9/5 4:00,26.7,0,73,0,30.1,0,61.5,0,=,2,27.5,0
2004/9/5 4:15,26.8,0,74,0,30.1,0,61.6,0,=,2,27.5,0
2004/9/5 4:30,26.8,0,74,0,30.1,0,61.9,0,=,2,27.5,0
2004/9/5 4:45,26.9,0,74,0,30.1,0,61.6,0,=,2,27.5,0
2004/9/5 5:00,26.7,0,74,0,30,0,61.7,0,=,2,27.5,0
2004/9/5 5:15,26.6,0,74,0,29.9,0,61.9,0,=,2,27.5,0
2004/9/5 5:30,26.5,0,74,0,29.9,0,62,0,=,2,27.5,0
2004/9/5 5:45,26.3,0,74,0,29.9,0,62.4,0,=,2,27.6,0
2004/9/5 6:00,26.2,0,75,0,29.9,0,62.5,0,=,2,27.6,0
2004/9/5 6:15,26.3,0,75,0,29.9,0,62.6,0,=,2,27.6,0
2004/9/5 6:30,26.3,0,75,0,29.9,0,62.6,0,=,2,27.6,0
2004/9/5 6:45,26.2,0,77,0,29.9,0,64.2,0,=,2,27.6,0
2004/9/5 7:00,26.1,0,78,0,29.9,0,64.5,0,=,2,26.8,0
2004/9/5 7:15,26,0,79,0,29.9,0,64.8,0,=,2,26.8,0
2004/9/5 7:30,26.1,0,78,0,29.9,0,65,0,=,2,26.7,0
2004/9/5 7:45,26.4,0,76,0,30,0,64.6,0,=,2,26.3,0
2004/9/5 8:00,26.9,0,75,0,30,0,65,0,=,2,26.4,0
2004/9/5 8:15,27.7,0,73,0,30.1,0,64.5,0,=,2,26.6,0
2004/9/5 8:30,28.3,0,68,0,30,0,64.3,0,=,2,26.1,0
2004/9/5 8:45,28.8,0,64,0,30.2,0,64.3,0,=,2,26.3,0
2004/9/5 9:00,29.2,0,63,0,30.2,0,63.2,0,=,2,26.4,0
2004/9/5 9:15,31.1,0,58,0,30.3,0,63.9,0,=,2,26.4,0
2004/9/5 9:30,33.3,0,48,0,30.3,0,63.3,0,=,2,26.7,0
2004/9/5 9:45,35.5,0,43,0,30.3,0,63.8,0,=,2,26.8,0
2004/9/5 10:00,37.7,0,36,0,30.4,0,63.3,0,=,2,26.8,0
2004/9/5 10:15,37.9,0,35,0,30.4,0,63.3,0,=,2,26.9,0
2004/9/5 10:30,35.5,0,40,0,30.2,0,63.4,0,=,2,26.9,0
2004/9/5 10:45,31.3,0,52,0,30.3,0,64,0,=,2,27,0
2004/9/5 11:00,30.6,0,57,0,30.3,0,64.4,0,=,2,27,0
2004/9/5 11:15,31.1,0,56,0,30.4,0,64.6,0,=,2,27.1,0
2004/9/5 11:30,30.9,0,56,0,30.5,0,65.3,0,=,2,27.1,0
2004/9/5 11:45,30.6,0,58,0,30.7,0,65.4,0,=,2,27.1,0
2004/9/5 12:00,30.7,0,58,0,30.7,0,64.2,0,=,2,27.1,0
2004/9/5 12:15,30.5,0,58,0,30.9,0,63.5,0,=,2,27.2,0
2004/9/5 12:30,30.5,0,60,0,31,0,62.9,0,=,2,26.9,0
2004/9/5 12:45,30.5,0,59,0,31.1,0,63,0,=,2,27.1,0
2004/9/5 13:00,30.4,0,60,0,31.2,0,62.4,0,=,2,27.1,0
2004/9/5 13:15,30.7,0,59,0,31.3,0,62.5,0,=,2,27.4,0
2004/9/5 13:30,30.7,0,58,0,31.4,0,62.2,0,=,2,27.4,0
2004/9/5 13:45,30.7,0,58,0,31.5,0,62.6,0,=,2,27.4,0
2004/9/5 14:00,30.7,0,58,0,31.7,0,61.8,0,=,2,27.5,0
2004/9/5 14:15,30.8,0,58,0,31.8,0,62.1,0,=,2,27.5,0
2004/9/5 14:30,30.7,0,58,0,31.7,0,61.7,0,=,2,27.5,0
2004/9/5 14:45,30.7,0,58,0,31.9,0,61.6,0,=,2,27.5,0
2004/9/5 15:00,30.9,0,59,0,31.9,0,62.1,0,=,2,27.6,0
2004/9/5 15:15,30.6,0,59,0,32.1,0,61.9,0,=,2,27.7,0
2004/9/5 15:30,30.6,0,60,0,32.2,0,61.6,0,=,2,27.7,0
2004/9/5 15:45,30.8,0,60,0,32.3,0,60.3,0,=,2,27.7,0
2004/9/5 16:00,30.8,0,60,0,32.3,0,60.5,0,=,2,27.9,0
2004/9/5 16:15,30.6,0,61,0,32.5,0,59.8,0,=,2,27.7,0
2004/9/5 16:30,30.7,0,61,0,32.6,0,60,0,=,2,27.7,0
2004/9/5 16:45,30.8,0,60,0,32.5,0,59.4,0,=,2,27.7,0
2004/9/5 17:00,30.8,0,58,0,32.4,0,61.1,0,=,2,27.7,0
2004/9/5 17:15,30.8,0,58,0,32.3,0,59.6,0,=,2,27.8,0
2004/9/5 17:30,30.8,0,59,0,31.5,0,56.8,0,=,2,27.8,0
2004/9/5 17:45,30.6,0,59,0,31.3,0,54.6,0,=,2,27.8,0
2004/9/5 18:00,30.4,0,62,0,30.7,0,51.2,0,=,2,27.9,0
2004/9/5 18:15,30.1,0,65,0,30.5,0,49.3,0,=,2,27.9,0
2004/9/5 18:30,29.6,0,69,0,30.6,0,46.4,0,=,2,27.9,0
2004/9/5 18:45,29.7,0,64,0,30.7,0,47.7,0,=,2,28,0